QPF
0.00 0.00 0.00 0.00 0.00 0.00 0.00 0.00 0.00 0.00 0.00 0.00 0.00 0.00 0.00 0.00 0.00 0.00 0.00 0.00 0.00 0.00
0.00 0.00 0.00 0.00 0.00 0.00 0.00 0.00 0.00 0.00 0.00 0.00 0.00 0.00 0.00 0.00 0.00 0.00 0.00 0.01 0.03 0.07
0.00 0.00 0.00 0.00 0.00 0.00 0.00 0.00 0.00 0.00 0.00 0.01 0.00 0.00 0.00 0.00 0.00 0.00 0.00 0.01 0.01 0.01
0.00 0.00 0.00 0.00 0.00 0.00 0.00 0.00 0.00 0.00 0.00 0.00 0.00 0.00 0.00 0.00 0.00 0.00 0.00 0.00 0.00 0.01
0.00 0.00 0.00 0.00 0.00 0.00 0.00 0.00 0.00 0.00 0.00 0.00 0.00 0.00 0.00 0.00 0.00 0.00 0.00 0.00 0.00 0.00
0.00 0.00 0.00 0.00 0.00 0.00 0.00 0.00 0.00 0.00 0.00 0.00 0.00 0.00 0.00 0.00 0.00 0.00 0.00 0.00 0.00 0.00
0.00 0.00 0.00 0.00 0.00 0.00 0.00 0.00 0.00 0.00 0.00 0.00 0.00 0.00 0.00 0.00 0.00 0.00 0.00 0.00 0.00 0.00
0.00 0.00 0.00 0.00 0.00 0.00 0.00 0.00 0.00 0.00 0.00 0.00 0.00 0.00 0.00 0.00 0.00 0.00 0.00 0.00 0.00 0.00
0.00 0.00 0.00 0.01 0.01 0.02 0.00 0.00 0.00 0.00 0.00 0.00 0.00 0.00 0.00 0.00 0.00 0.00 0.00 0.00 0.00 0.00
0.00 0.01 0.01 0.03 0.06 0.03 0.00 0.00 0.00 0.00 0.00 0.00 0.00 0.00 0.00 0.00 0.00 0.00 0.00 0.00 0.00 0.00
0.00 0.02 0.02 0.04 0.05 0.02 0.00 0.00 0.00 0.00 0.00 0.00 0.00 0.00 0.00 0.00 0.00 0.00 0.00 0.00 0.00 0.00
0.00 0.03 0.02 0.04 0.09 0.04 0.00 0.00 0.00 0.00 0.00 0.00 0.00 0.00 0.00 0.00 0.00 0.00 0.00 0.00 0.00 0.00
0.01 0.02 0.03 0.03 0.01 0.00 0.00 0.00 0.00 0.00 0.00 0.00 0.00 0.00 0.00 0.00 0.00 0.00 0.00 0.00 0.00 0.00
0.00 0.00 0.00 0.00 0.00 0.00 0.00 0.00 0.00 0.00 0.00 0.00 0.00 0.00 0.00 0.01 0.01 0.00 0.00 0.00 0.00 0.00
MSLP
1022.86 1023.02 1023.18 1023.26 1023.23 1023.34 1023.68 1023.59 1023.37 1023.22 1023.00 1022.87 1022.76 1022.77 1022.68 1022.53 1022.33 1022.00 1021.79 1021.59 1021.26 1021.05
1022.86 1023.00 1023.03 1022.98 1023.27 1023.47 1023.54 1023.13 1023.22 1023.14 1022.95 1022.70 1022.54 1022.39 1022.37 1022.25 1021.99 1021.81 1021.68 1021.41 1021.27 1020.94
1022.59 1022.62 1022.74 1023.02 1023.19 1023.16 1023.13 1022.98 1023.00 1022.94 1022.75 1022.48 1022.29 1022.17 1022.16 1022.11 1021.80 1021.58 1021.41 1021.25 1021.02 1020.81
1022.15 1022.19 1022.28 1022.36 1022.45 1022.47 1022.43 1022.52 1022.63 1022.60 1022.44 1022.35 1022.15 1021.94 1021.83 1021.62 1021.31 1021.25 1021.23 1021.24 1021.01 1020.62
1021.93 1021.96 1022.00 1021.89 1021.81 1021.74 1022.00 1022.05 1022.07 1022.05 1022.14 1022.05 1021.96 1021.82 1021.69 1021.61 1021.66 1021.58 1021.64 1021.44 1021.05 1020.65
1021.93 1021.78 1021.70 1021.60 1021.55 1021.44 1021.65 1021.68 1021.57 1021.42 1021.64 1021.71 1021.67 1021.58 1021.64 1021.73 1021.78 1021.72 1021.56 1021.34 1021.01 1020.75
1021.31 1021.41 1021.55 1021.55 1021.20 1021.40 1021.19 1021.37 1021.46 1021.21 1021.23 1021.36 1021.36 1021.61 1021.73 1021.85 1021.92 1021.80 1021.56 1021.33 1021.10 1020.73
1020.79 1020.90 1020.92 1021.19 1020.66 1020.67 1020.52 1020.57 1021.02 1020.82 1020.81 1021.06 1021.22 1021.53 1021.68 1021.81 1021.85 1021.66 1021.35 1021.11 1020.84 1020.37
1020.84 1021.29 1021.13 1021.03 1021.24 1021.59 1020.66 1020.55 1020.86 1020.80 1020.70 1021.03 1021.32 1021.63 1021.67 1021.62 1021.52 1021.33 1021.07 1020.80 1020.43 1020.10
1021.47 1021.15 1021.16 1021.13 1021.37 1021.54 1020.60 1020.52 1020.63 1020.74 1020.97 1021.23 1021.43 1021.52 1021.42 1021.26 1021.18 1021.05 1020.79 1020.54 1020.17 1019.68
1021.61 1021.33 1021.14 1021.00 1021.67 1020.92 1020.61 1020.58 1020.54 1021.03 1021.40 1021.54 1021.54 1021.32 1021.04 1020.85 1020.89 1020.82 1020.63 1020.31 1019.91 1019.40
1021.83 1021.75 1021.64 1021.51 1021.20 1021.32 1020.79 1020.98 1020.87 1021.35 1021.57 1021.67 1021.47 1021.17 1020.94 1020.86 1020.78 1020.66 1020.45 1020.09 1019.59 1019.00
1021.83 1021.71 1021.41 1021.40 1021.07 1020.83 1021.01 1021.18 1021.27 1021.63 1021.76 1021.67 1021.42 1021.25 1021.04 1020.96 1020.94 1020.90 1020.38 1019.88 1019.24 1018.70
1021.85 1021.60 1021.28 1021.23 1021.20 1021.06 1021.23 1021.50 1021.72 1021.90 1021.90 1021.80 1021.77 1021.57 1021.30 1021.22 1021.02 1020.72 1020.18 1019.70 1018.98 1018.34
Thickness
5515 5505 5495 5483 5472 5459 5444 5433 5423 5411 5404 5395 5386 5377 5369 5362 5354 5346 5338 5330 5324 5321
5498 5487 5476 5466 5451 5436 5423 5413 5401 5388 5378 5369 5361 5352 5343 5334 5326 5319 5312 5308 5304 5301
5480 5469 5458 5445 5430 5417 5404 5394 5382 5369 5356 5346 5334 5325 5317 5310 5306 5302 5296 5293 5290 5287
5466 5453 5441 5429 5415 5398 5387 5374 5361 5348 5336 5324 5316 5309 5301 5295 5294 5289 5282 5277 5276 5276
5448 5435 5423 5415 5401 5384 5370 5355 5342 5330 5318 5308 5299 5292 5286 5281 5276 5271 5265 5262 5260 5259
5427 5413 5403 5388 5375 5363 5347 5337 5326 5316 5303 5292 5285 5279 5272 5266 5261 5256 5252 5248 5245 5241
5409 5397 5382 5366 5356 5339 5330 5318 5310 5301 5291 5281 5274 5267 5260 5254 5246 5242 5238 5233 5227 5223
5395 5379 5364 5350 5340 5328 5319 5311 5299 5293 5283 5273 5266 5257 5249 5242 5234 5229 5224 5218 5213 5211
5375 5357 5346 5335 5323 5310 5308 5301 5291 5281 5274 5264 5255 5244 5238 5232 5224 5216 5210 5206 5203 5198
5348 5339 5326 5316 5304 5294 5295 5290 5281 5272 5261 5252 5243 5235 5229 5222 5213 5204 5198 5192 5188 5187
5333 5322 5311 5299 5286 5287 5284 5279 5274 5260 5249 5240 5233 5227 5220 5212 5202 5194 5186 5180 5174 5172
5315 5302 5289 5280 5276 5273 5272 5269 5262 5249 5240 5232 5225 5218 5211 5203 5193 5186 5178 5170 5165 5163
5294 5286 5280 5272 5270 5270 5265 5259 5252 5241 5233 5226 5217 5210 5203 5194 5185 5176 5172 5167 5163 5159
5284 5279 5275 5271 5267 5265 5259 5251 5242 5234 5226 5217 5209 5200 5194 5186 5180 5175 5172 5167 5165 5162